AirNav   Phillips 66 Aviation Fuel
 
 1463 users online  

1J9 Fort Walton Beach Airport
Navarre, Florida, USA

GOING TO NAVARRE?


FAA INFORMATION EFFECTIVE 11 OCTOBER 2018

Location

FAA Identifier: 1J9
Lat/Long: 30-24-22.7000N / 086-49-45.1000W
30-24.378333N / 086-49.751667W
30.4063056 / -86.8291944
(estimated)
Elevation: 22 ft. / 6.7 m (surveyed)
Variation: 01E (1985)
From city: 2 miles E of NAVARRE, FL
Time zone: UTC -5 (UTC -6 during Standard Time)
Zip code: 32566

Airport Operations

Airport use: Open to the public
Activation date: 05/1969
Control tower: no
ARTCC: JACKSONVILLE CENTER
FSS: GAINESVILLE FLIGHT SERVICE STATION
NOTAMs facility: GNV (NOTAM-D service available)
Attendance: 1000-DUSK
Wind indicator: yes
Segmented circle: no

Airport Communications

CTAF/UNICOM: 122.7
WX ASOS at DTS (19 nm E): PHONE 850-654-7128
WX ASOS at PNS (19 nm W): PHONE 850-436-4799

Nearby radio navigation aids

VOR radial/distance  VOR name  Freq  Var
CEWr194/26.4CRESTVIEW VORTAC115.9003E
NUNr098/(26.5)SAUFLEY VOR108.8001E

 
NDB name  Hdg/Dist  Freq  Var  ID
PICKENS098/18.232602WPKZ .--. -.- --..

Airport Services

Airframe service: NONE
Powerplant service: NONE
Bottled oxygen: NONE
Bulk oxygen: NONE

Runway Information

Runway 18/36

Dimensions: 2100 x 65 ft. / 640 x 20 m
Surface: turf, in poor condition
RWY 18/36 BARE SPOTS SOFT & SANDY SOUTH OF RWYS MID POINT.
Gradient: N
Operational restrictions: ALL TKOFS RY 18; ALL LNDGS RY 36.
RUNWAY 18  RUNWAY 36
Latitude: 30-24.551792N30-24.205292N
Longitude: 086-49.750332W086-49.754368W
Elevation: 22.0 ft.2.0 ft.
Gradient: 1.0% UP
Traffic pattern: leftleft
Runway heading: 180 magnetic, 181 true000 magnetic, 001 true
Obstructions: 40 ft. tree, 280 ft. from runway, 85 ft. left of centerline, 7:1 slope to clear
RY 18 20:1 APPROACH TO THE DSPLCD THLD.
6 ft. brush, 170 ft. from runway, 40 ft. right of centerline, 32:1 slope to clear
BRUSH IN PRIMARY SFC & TRANSITION ZONES FY 36 +/- 100 FT FROM CNTRLN. ACFT PARKED 80 FT FROM CNTRLN.

Airport Ownership and Management from official FAA records

Ownership: Privately-owned
Owner: BOOMER AVIATION INC.
P.O. BOX 1075
FORT WALTON, FL 32549
Phone 850-244-1313
CONTACT PERSON; SANDY WILLIAMS, 850-244-1313
Manager: SANDY WILLIAMS
P.O. BOX 1075, P.O. BOX
FT WALTON BEACH, FL 32549
Phone (850) 244-1313

Airport Operational Statistics

Aircraft based on the field: 8
Single engine airplanes: 8
    
Aircraft operations: avg 22/day *
91% local general aviation
9% transient general aviation
* for 12-month period ending 15 March 2017

Additional Remarks

RY 18/36 SLOPES TO 3 FT ELEVATION AT SOUTH END.
BANNER TOWING.
RY 18/36 MARKED WITH WHITE CONES.
ARPT CLSD TO HELICOPTERS MORE THAN 2500 LBS.

Instrument Procedures

There are no published instrument procedures at 1J9.

Some nearby airports with instrument procedures:

KHRT - Hurlburt Field Airport (7 nm E)
2R4 - Peter Prince Field Airport (16 nm NW)
KVPS - Eglin Air Force Base/Destin-Fort Walton Beach Airport (16 nm E)
KDTS - Destin Executive Airport (19 nm E)
KPNS - Pensacola International Airport (19 nm W)
KNDZ - Whiting Field Naval Air Station South (20 nm NW)
 
Loc | Ops | Rwys | IFR | FBO | Links
Com | Nav | Svcs | Stats | Notes


 
Area around 1J9 (Fort Walton Beach Airport)
 
Road maps at: MapQuest Bing Google
 
Aerial photo
WARNING: Photo may not be current or correct
Aerial photo of 1J9 (Fort Walton Beach Airport)
Photo by Scott Jackson - PhotosFlorida.com
Photo taken 04-Oct-2007
looking north

Do you have a better or more recent aerial photo of Fort Walton Beach Airport that you would like to share? If so, please send us your photo.

 
Sectional chart

 
Airport distance calculator
Flying to Fort Walton Beach Airport? Find the distance to fly.

From to 1J9

Sunrise and sunset
Times for 19-Oct-2018
 Local
(UTC-5)
 Zulu
(UTC)
Morning civil twilight06:2911:29
Sunrise06:5311:53
Sunset18:1123:11
Evening civil twilight18:3623:36

Current date and time
Zulu (UTC)  19-Oct-2018 19:09:19
Local (UTC-5)  19-Oct-2018 14:09:19
 
METAR
KHRT 
8nm E 
191756Z 15009KT 10SM SCT013 27/22 A3017 RMK AO2A SLP218 T02710164 10271 20192 57017 $
2R4 
16nm NW 
SuperAWOS
191835Z AUTO 00000KT 28/23 A3015
KVPS 
17nm E 
191855Z 19004KT 10SM FEW024 SCT250 28/22 A3015 RMK AO2A SLP215 T02770217 $
KDTS 
19nm E 
191853Z VRB04KT 10SM SCT013 27/22 A3015 RMK AO2 SLP209 T02670222
KPNS 
19nm W 
191853Z 13007KT 10SM BKN014 27/23 A3015 RMK AO2 SLP212 T02670228
TAF
KHRT 
8nm E 
191700Z 1917/2023 12009KT 9999 OVC010 QNH3016INS BECMG 1918/1919 14009KT 9999 SCT015 SCT025 QNH3009INS BECMG 2000/2001 16003KT 9999 SCT010 SCT020 QNH3007INS BECMG 2005/2006 VRB03KT 4800 BR SCT005 BKN015 QNH3003INS TEMPO 2009/2013 3200 BR BECMG 2014/2015 30006KT 9999 NSW SCT010 BKN025 QNH3000INS BECMG 2019/2020 33012KT 8000 -SHRA SCT015 BKN025 QNH2999INS TX28/1918Z TN23/2011Z
KVPS 
17nm E 
191700Z 1917/2023 17009KT 9999 SCT015 BKN250 QNH3014INS BECMG 1918/1919 17009KT 9999 VCSH SCT025 SCT250 QNH3014INS BECMG 1922/1923 23008KT 9999 NSW FEW030 SCT250 QNH3005INS BECMG 2003/2004 24003KT 3200 BR FEW010 SCT250 QNH3006INS BECMG 2005/2006 25003KT 0800 FG BKN003 QNH3003INS BECMG 2015/2016 27006KT 9999 NSW SCT015 SCT250 QNH3005INS TX30/1920Z TN18/2009Z
KPNS 
19nm W 
191720Z 1918/2018 05005KT P6SM VCSH FEW050 BKN250 FM200000 16004KT P6SM SCT050 BKN250 FM200600 19002KT 2SM BR BKN250 FM200900 VRB03KT 4SM BR SCT004 BKN250 FM201500 27004KT P6SM VCSH BKN015
NOTAMs
Click for the latest NOTAMs
NOTAMs are issued by the DoD/FAA and will open in a separate window not controlled by AirNav.

 

 
 

Would you like to see your business listed on this page?

 If your business provides an interesting product or service to pilots, flight crews, aircraft, or users of the Fort Walton Beach Airport, you should consider listing it here.  To start the listing process, click on the button below
 
Add a business
 

Other Pages about Fort Walton Beach Airport

Update a link
 
Copyright © AirNav, LLC. All rights reserved. Privacy Policy  Contact